Regional Weather Roundup
Issued by NWS

Home | Current Version | Previous Version | Graphics & Text | Print | Product List | Glossary On
Versions: 1 2 3 4 5 6 7 8 9 10 11 12 13 14 15 16 17 18 19 20 21 22 23 24 25 26 27 28 29 30 31 32 33 34 35 36 37 38 39 40 41 42 43 44 45 46 47 48 49 50
000
ASUS43 KTOP 290359
RWRKS

WEATHER ROUNDUP FOR KANSAS
NATIONAL WEATHER SERVICE GOODLAND KS
1100 PM CDT THU AUG 28 2014

NOTE:  "FAIR" INDICATES FEW OR NO CLOUDS BELOW 12,000 FEET WITH NO
SIGNIFICANT WEATHER AND/OR OBSTRUCTIONS TO VISIBILITY.

KSZ001>006-013>018-027>032-041>047-290500-
NORTHWEST KANSAS

CITY           SKY/WX    TMP DP  RH WIND       PRES   REMARKS
GOODLAND       MOCLDY    63  58  83 NW8       30.01S
HAYS           CLOUDY    73  63  68 SE7       29.89R
HILL CITY      CLOUDY    69  62  78 NW7       29.90R
RUSSELL        CLOUDY    69  64  84 S8        29.86F
$$

KSZ061>065-074>080-084>089-290500-
SOUTHWEST KANSAS

CITY           SKY/WX    TMP DP  RH WIND       PRES   REMARKS
DODGE CITY     CLOUDY    70  59  68 W12       29.96R
ELKHART          N/A     71  51  49 NW7         N/A
GARDEN CITY    CLOUDY    68  58  70 NW8       29.97F
GREAT BEND     CLOUDY    72  63  73 S12       29.89F
LIBERAL        MOCLDY    72  55  56 NE3       30.00S THUNDER
$$

KSZ066>073-081>083-090>101-290500-
SOUTHEAST KANSAS

CITY           SKY/WX    TMP DP  RH WIND       PRES   REMARKS
CHANUTE        PTCLDY    75  61  61 S6        29.90R
COFFEYVILLE    PTCLDY    77  63  61 S6        29.89R
HUTCHINSON     CLOUDY    73  64  73 SW6       29.88S
NEWTON         CLOUDY    72  55  56 S20       29.89F
PARSONS        PTCLDY    77  61  57 S3        29.91R
WICHITA INTL   LGT RAIN  71  63  75 SE10      29.89F
WICHITA JABRA  CLOUDY    74  60  61 S10       29.90S
WINFIELD       TSTM      68  66  93 S8        29.98S FOG
$$

KSZ007>012-019>026-033>040-048>060-102>105-290500-
NORTHEAST KANSAS

CITY           SKY/WX    TMP DP  RH WIND       PRES   REMARKS
CONCORDIA      LGT RAIN  73  68  83 S12       29.83F
EMPORIA        CLOUDY    77  67  71 S8        29.88S
LAWRENCE       PTCLDY    77  66  68 CALM      29.88R
MANHATTAN      CLOUDY    74  69  85 CALM      29.85F
OLATHE IND     CLEAR     77  64  64 S7        29.90R
OLATHE EXE     CLEAR     76  64  66 SW3       29.89R
SALINA         CLOUDY    74  65  73 S6        29.84F
TOPEKA BILLARD MOCLDY    81  66  60 SE6       29.87R
TOPEKA FORBES  MOCLDY    81  63  54 S3        29.88R
$$


USA.gov is the U.S. government's official web portal to all federal, state and local government web resources and services.